Regional Weather Roundup
Issued by NWS

Home | Current Version | Previous Version | Graphics & Text | Print | Product List | Glossary On
Versions: 1 2 3 4 5 6 7 8 9 10 11 12 13 14 15 16 17 18 19 20 21 22 23 24 25 26 27
556
ASUS43 KDMX 211207
RWRIA

WEATHER ROUNDUP FOR IOWA
NATIONAL WEATHER SERVICE DES MOINES IA
700 AM CDT THU MAY 21 2015

NOTE: "FAIR" INDICATES FEW OR NO CLOUDS BELOW 12,000 FEET WITH NO
SIGNIFICANT WEATHER AND/OR OBSTRUCTIONS TO VISIBILITY.

* - THESE STATIONS ARE NOT NWS STATIONS...THUS NOT UNDER NWS
QUALITY CONTROL.  THEY ALSO DO NOT REPORT WEATHER SUCH
AS PRECIPITATION OR FOG.

IAZ001>003-012>014-020>022-031>034-043>046-211300-
   NORTHWEST IOWA

CITY           SKY/WX    TMP DP  RH WIND       PRES   REMARKS
CARROLL *      SUNNY     43  39  87 W14       30.20R
CHEROKEE *     SUNNY     40  40  98 SW5       30.20S
DENISON *      SUNNY     39  39 100 SW7       30.21R WCI  34
LE MARS *      CLEAR     45  39  81 VRB3      30.23R
ORANGE CITY *  CLEAR     41  37  87 W7        30.20R
SHELDON *      SUNNY     43  39  87 W8        30.17S
SIOUX CITY     CLEAR     44  37  76 NW8       30.23R
6HR MIN TEMP:  40; 6HR MAX TEMP:  44;

SPENCER        SUNNY     44  38  79 W9        30.17R
6HR MIN TEMP:  41; 6HR MAX TEMP:  44;

STORM LAKE *   SUNNY     41  39  93 W15       30.19S
$$

IAZ055>058-069>071-079>083-090>094-211300-
   SOUTHWEST IOWA

CITY           SKY/WX    TMP DP  RH WIND       PRES   REMARKS
ATLANTIC *     SUNNY     39  39 100 S5        30.24S
AUDUBON *      SUNNY     41  37  87 W3        30.23R
CLARINDA *     CLEAR     41  41 100 CALM      30.29R
COUNCIL BLFS * CLEAR     41  41 100 SW7       30.26R
CRESTON *      SUNNY     39  39 100 W5        30.24S
HARLAN  *      SUNNY     41  41 100 W6        30.27R
LAMONI         SUNNY     44  41  89 W8        30.24R
6HR MIN TEMP:  43; 6HR MAX TEMP:  47;

RED OAK *      CLEAR     39  39 100 S3        30.26S FOG
SHENANDOAH *   CLEAR     41  41 100 SW5       30.28S
$$

IAZ047>049-059>061-072>074-084-211300-
   CENTRAL IOWA

CITY           SKY/WX    TMP DP  RH WIND       PRES   REMARKS
AMES           SUNNY     43  39  86 W14       30.18S
6HR MIN TEMP:  39; 6HR MAX TEMP:  43;

ANKENY *       SUNNY     43  41  93 W9        30.21R
CHARITON *     SUNNY     41  41 100 W8        30.23R
DES MOINES     SUNNY     44  40  85 W7        30.22R
6HR MIN TEMP:  41; 6HR MAX TEMP:  44;

GRINNELL*      SUNNY     41  39  93 W7        30.19S
KNOXVILLE *    SUNNY     41  41 100 W8        30.20S
MARSHALLTOWN   SUNNY     42  39  89 W6        30.17S
6HR MIN TEMP:  37; 6HR MAX TEMP:  42;

PELLA *        SUNNY     44  44 100 W5        30.22S
PERRY *          N/A     43  41  93 W10       30.20S
$$

IAZ004>006-015-016-023>025-035-036-211300-
   NORTH CENTRAL IOWA

CITY           SKY/WX    TMP DP  RH WIND       PRES   REMARKS
ALGONA *       SUNNY     43  41  93 W12       30.15R
CLARION *      SUNNY     41  41 100 SW5       30.16S
ESTHERVILLE    SUNNY     46  35  65 W14       30.13S
6HR MIN TEMP:  41; 6HR MAX TEMP:  46;

FORT DODGE *   SUNNY     43  37  81 SW5       30.18R
MASON CITY     SUNNY     45  39  79 W15       30.14S
6HR MIN TEMP:  42; 6HR MAX TEMP:  46;

FOREST CITY *  SUNNY     41  39  93 SW5       30.14R
IOWA FALLS *     N/A     43  37  81 W13       30.17S
$$

IAZ007>011-017>019-026>030-037>042-050>054-066-211300-
   NORTHEAST IOWA

CITY           SKY/WX    TMP DP  RH WIND       PRES   REMARKS
CEDAR RAPIDS   SUNNY     40  40 100 SW7       30.16S
6HR MIN TEMP:  35; 6HR MAX TEMP:  40;

CHARLES CITY * SUNNY     43  41  93 W13       30.14R
CLINTON *      SUNNY     41  37  87 W7        30.19S
DECORAH *      SUNNY     43  39  87 VRB6      30.11R
DUBUQUE        MOSUNNY   41  38  89 W9        30.14R
6HR MIN TEMP:  39; 6HR MAX TEMP:  43;

MONTICELLO *   SUNNY     43  41  93 CALM      30.16R
OELWEIN *      SUNNY     41  39  93 SW6       30.15R
WATERLOO       SUNNY     43  38  82 W10       30.14S
6HR MIN TEMP:  38; 6HR MAX TEMP:  43;

$$

IAZ064-065-067-068-078-211300-
   EAST CENTRAL IOWA

CITY           SKY/WX    TMP DP  RH WIND       PRES   REMARKS
DAVENPORT      CLOUDY    42  39  89 W10       30.18R
6HR MIN TEMP:  41; 6HR MAX TEMP:  43;

IOWA CITY      SUNNY     40  39  97 W5        30.20R
6HR MIN TEMP:  36; 6HR MAX TEMP:  40;

MT. PLEASANT * SUNNY     43  42  97 NW8       30.21R FOG
MUSCATINE *      N/A     43  41  93 CALM      30.20R
QUAD CITIES    CLOUDY    45  39  79 W8        30.18R
6HR MIN TEMP:  41; 6HR MAX TEMP:  45;

$$

IAZ062-063-075>077-085>089-095>099-211300-
   SOUTHEAST IOWA

CITY           SKY/WX    TMP DP  RH WIND       PRES   REMARKS
BURLINGTON     SUNNY     41  40  96 NW5       30.20R
6HR MIN TEMP:  37; 6HR MAX TEMP:  44;

FAIRFIELD *    SUNNY     41  39  93 W6        30.21R FOG
FORT MADISON *   N/A     43  43 100 NW3       30.21R FOG
KEOKUK *       SUNNY     43  43 100 NW6       30.21R FOG
OSKALOOSA *    FOG       40  39  97 W6        30.22R VSB 1/4
CENTERVILLE *  PTSUNNY   41  41 100 W6        30.25R
OTTUMWA        FOG       41  41 100 W8        30.21R VSB 1/4
6HR MIN TEMP:  37; 6HR MAX TEMP:  43;

WASHINGTON *   SUNNY     41 N/A N/A W8        30.20R FOG
$$

ABBREVIATIONS USED IN REMARKS
   TC - TEMPERATURES IN CELSIUS
  WCI - WIND CHILL INDEX
   HX - HEAT INDEX
  VSB - VISIBILITY
$$




USA.gov is the U.S. government's official web portal to all federal, state and local government web resources and services.